This demonstration page uses our WeatherBlox Daily Observations layout. Learn more.

Left ArrowRight Arrow

Hourly Observations for May 13, 2020

Temp ( °F °C ) Dew Point ( °F °C ) Humidity (%) Winds ( mph kmh ) Pressure ( in mb ) Visibility ( mi km ) Precip ( " mm )
12:15 am 00:15 Cloudy 46 7.9 43 6 88 88 SSE 15 24 30.01 1016 10 16.0934 0 0
12:35 am 00:35 Cloudy 46 7.6 43 6.2 91 91 SSE 14 22 30.01 1016 10 16.0934 0 0
12:55 am 00:55 Cloudy 46 7.8 42 5.7 87 87 SSE 14 22 30 1016 10 16.0934 0 0
1:15 am 01:15 Cloudy 46 7.7 42 5.8 88 88 SSE 12 19 30 1016 10 16.0934 0 0
1:35 am 01:35 Cloudy 46 7.7 43 6 89 89 SSE 13 20 29.99 1016 10 16.0934 0 0
1:55 am 01:55 Cloudy 46 7.7 43 6.2 90 90 SSE 13 20 29.99 1016 10 16.0934 0 0
2:15 am 02:15 Cloudy 46 7.6 43 6.3 92 92 SSE 14 22 29.99 1016 10 16.0934 0 0
2:35 am 02:35 Cloudy 46 7.6 44 6.6 93 93 SSE 14 22 30 1016 7 11.26538 0 0
2:55 am 02:55 Cloudy 46 7.5 44 6.7 95 95 SSE 12 19 30 1016 7 11.26538 0 0
3:15 am 03:15 Cloudy 46 7.5 44 6.7 95 95 SSE 14 22 29.98 1015 7 11.26538 0 0
3:35 am 03:35 Cloudy 46 7.5 44 6.7 95 95 SSE 12 19 29.97 1015 10 16.0934 0 0
3:55 am 03:55 Cloudy 46 7.5 44 6.7 95 95 SSE 12 19 29.96 1014 7 11.26538 0 0
4:15 am 04:15 Cloudy 46 7.5 44 6.7 95 95 SSE 13 20 29.95 1014 7 11.26538 0 0
4:35 am 04:35 Cloudy with Mist and Fog 46 7.5 44 6.8 95 95 SSE 15 24 29.95 1014 4 6.43736 0 0
4:55 am 04:55 Cloudy with Mist and Fog 45 7.3 44 6.8 97 97 SSE 12 19 29.94 1014 4 6.43736 0 0
5:15 am 05:15 Cloudy with Mist and Fog 45 7.4 44 6.9 97 97 SSE 15 24 29.93 1013 2 3.21868 0 0
5:35 am 05:35 Cloudy with Mist and Fog 46 7.5 45 7 97 97 SSE 13 20 29.93 1013 2 3.21868 0 0
5:55 am 05:55 Cloudy with Mist and Fog 46 7.5 45 7 97 97 SSE 9 15 29.93 1013 3 4.82802 0 0
6:15 am 06:15 Cloudy with Mist and Fog 46 7.5 45 7 97 97 SSE 12 19 29.93 1013 3 4.82802 0 0
6:35 am 06:35 Cloudy with Mist and Fog 46 7.5 45 7 97 97 SSE 12 19 29.92 1013 3 4.82802 0 0
6:55 am 06:55 Cloudy with Mist and Fog 46 7.5 45 7.1 97 97 SSE 9 15 29.92 1013 2.5 4.02335 0 0
7:15 am 07:15 Cloudy with Mist and Fog 46 7.5 45 7.1 97 97 SE 13 20 29.92 1013 1.25 2.011675 0 0
7:35 am 07:35 Cloudy with Mist and Fog 46 7.6 45 7.2 97 97 SE 14 22 29.9 1013 1.5 2.41401 0 0
7:55 am 07:55 Cloudy with Mist and Fog 46 7.6 45 7.2 97 97 SE 14 22 29.91 1013 4 6.43736 0 0
8:15 am 08:15 Cloudy with Mist and Fog 46 7.7 45 7.3 97 97 SSE 10 17 29.91 1013 3 4.82802 0 0
8:35 am 08:35 Cloudy with Mist and Fog 46 7.7 45 7.4 98 98 SSE 13 20 29.9 1013 2.5 4.02335 0 0
8:55 am 08:55 Cloudy with Mist and Fog 46 8 46 7.5 97 97 SSE 14 22 29.9 1013 3 4.82802 0 0
9:15 am 09:15 Cloudy with Mist and Fog 46 8 46 7.6 97 97 SSE 9 15 29.89 1012 3 4.82802 0 0
9:35 am 09:35 Cloudy with Mist and Fog 47 8.3 46 7.8 97 97 SE 13 20 29.89 1012 2.5 4.02335 0 0
9:55 am 09:55 Cloudy with Mist and Fog 47 8.3 46 7.8 97 97 SSE 15 24 29.88 1012 2.5 4.02335 0 0
10:15 am 10:15 Cloudy with Mist and Fog 47 8.5 46 8 97 97 SSE 14 22 29.88 1012 3 4.82802 0 0
10:35 am 10:35 Cloudy with Mist and Fog 47 8.6 46 8 96 96 SSE 16 26 29.87 1011 4 6.43736 0 0
10:55 am 10:55 Cloudy with Mist and Fog 48 8.8 47 8.2 96 96 SSE 15 24 29.85 1011 3 4.82802 0 0
11:15 am 11:15 Cloudy with Mist and Fog 48 9 47 8.5 97 97 SSE 15 24 29.84 1011 3 4.82802 0 0
11:35 am 11:35 Cloudy with Mist and Fog 49 9.2 47 8.6 96 96 SSE 17 28 29.84 1010 4 6.43736 0 0
11:55 am 11:55 Cloudy with Mist and Fog 49 9.3 47 8.6 95 95 SSE 16 26 29.84 1010 5 8.0467 0 0
12:15 pm 12:15 Cloudy with Mist and Fog 49 9.5 48 8.7 95 95 SSE 17 28 29.83 1010 5 8.0467 0 0
12:35 pm 12:35 Cloudy with Mist and Fog 49 9.7 48 9 95 95 SSE 15 24 29.83 1010 5 8.0467 0 0
12:55 pm 12:55 Cloudy with Mist and Fog 50 9.8 48 9.1 95 95 SSE 13 20 29.81 1010 4 6.43736 0 0
1:15 pm 13:15 Cloudy 51 10.3 49 9.5 95 95 SSE 17 28 29.81 1009 7 11.26538 0 0
1:35 pm 13:35 Cloudy 51 10.5 49 9.5 94 94 SSE 15 24 29.8 1009 10 16.0934 0 0
1:55 pm 13:55 Cloudy 51 10.5 49 9.5 94 94 SSE 12 19 29.79 1009 10 16.0934 0 0
2:15 pm 14:15 Cloudy 51 10.7 50 9.8 94 94 S 14 22 29.79 1009 10 16.0934 0 0
2:35 pm 14:35 Cloudy 52 11.1 50 10.2 94 94 S 14 22 29.78 1009 10 16.0934 0 0
2:55 pm 14:55 Cloudy 52 11.3 50 10.2 93 93 S 15 24 29.77 1008 10 16.0934 0 0
3:15 pm 15:15 undefined N/A N/A N/A undefined N/A N/A N/A 0 0
3:35 pm 15:35 undefined N/A N/A N/A undefined N/A N/A N/A 0 0
3:55 pm 15:55 undefined N/A N/A N/A undefined N/A N/A N/A 0 0
4:15 pm 16:15 undefined N/A N/A N/A undefined N/A N/A N/A 0 0
4:35 pm 16:35 undefined N/A N/A N/A undefined N/A N/A N/A 0 0
4:55 pm 16:55 Cloudy 56 13.1 52 11.2 88 88 SSW 6 9 29.75 1007 10 16.0934 0.03 0.762
5:15 pm 17:15 Cloudy 56 13.4 53 11.5 88 88 SW 3 6 29.74 1007 10 16.0934 0 0
5:35 pm 17:35 Cloudy 56 13.5 53 11.5 88 88 SSW 6 9 29.74 1007 10 16.0934 0 0
5:55 pm 17:55 Cloudy 56 13.5 53 11.6 88 88 SW 3 6 29.73 1007 10 16.0934 0 0
6:15 pm 18:15 Cloudy 56 13.5 53 11.5 88 88 Calm 29.74 1007 10 16.0934 0 0
6:35 pm 18:35 Cloudy 57 13.7 53 11.7 88 88 Calm 29.73 1007 10 16.0934 0 0
6:55 pm 18:55 Cloudy 57 13.7 53 11.6 87 87 Calm 29.73 1007 10 16.0934 0 0
7:15 pm 19:15 Cloudy 57 14 53 11.7 86 86 Calm 29.73 1007 10 16.0934 0 0
7:35 pm 19:35 Cloudy 57 13.9 53 11.7 87 87 SE 3 6 29.73 1007 10 16.0934 0 0
7:55 pm 19:55 Cloudy 57 13.7 53 11.7 88 88 SE 6 9 29.73 1007 10 16.0934 0 0
8:15 pm 20:15 Cloudy 56 13.6 53 11.7 88 88 SE 5 7 29.73 1007 10 16.0934 0 0
8:35 pm 20:35 Cloudy 56 13.5 53 11.7 89 89 ESE 5 7 29.73 1007 10 16.0934 0 0
8:55 pm 20:55 Cloudy 56 13.1 53 11.6 91 91 ENE 3 6 29.75 1007 10 16.0934 0 0
9:15 pm 21:15 Cloudy 55 13 53 11.6 91 91 ENE 3 6 29.77 1008 10 16.0934 0 0
9:35 pm 21:35 Cloudy 55 12.7 53 11.5 92 92 ENE 5 7 29.77 1008 10 16.0934 0 0
9:55 pm 21:55 Cloudy 55 12.5 53 11.4 93 93 NE 7 11 29.78 1008 10 16.0934 0 0
10:15 pm 22:15 Cloudy 54 12.3 53 11.4 94 94 NE 6 9 29.79 1009 10 16.0934 0 0
10:35 pm 22:35 Cloudy 54 12.2 53 11.5 96 96 NE 6 9 29.8 1009 7 11.26538 0 0
10:55 pm 22:55 Cloudy 54 12.1 53 11.4 96 96 NE 7 11 29.8 1009 7 11.26538 0 0
11:15 pm 23:15 Cloudy 54 12 53 11.5 97 97 NE 6 9 29.81 1009 7 11.26538 0 0
11:35 pm 23:35 Cloudy 54 12 53 11.5 97 97 ENE 7 11 29.81 1009 7 11.26538 0 0
11:55 pm 23:55 Cloudy with Mist and Fog 54 12 53 11.4 96 96 E 6 9 29.81 1009 5 8.0467 0 0

Powered by AerisWeather